SB KEPS @ AMSAT $ORB07361.O Orbital Elements 07361.OSCAR
HR AMSAT ORBITAL ELEMENTS FOR OSCAR SATELLITES FROM WA5QGD FORT WORTH,TX December 27, 2007 Send Subscribe/unsubscribe to KEPS at http://www.amsat.org/mailman/listinfo/keps BID: ORB07361.O TO ALL RADIO AMATEURS BT
Satellite: PO-63 Catalog number: 29712 Epoch time: 07358.04397519 Element set: 30 Inclination: 097.9014 deg RA of node: 054.3600 deg Eccentricity: 0.0013362 Arg of perigee: 230.3691 deg Mean anomaly: 129.6344 deg Mean motion: 14.79954504 rev/day Decay rate: 7.45e-06 rev/day^2 Epoch rev: 5141 Checksum: 295
Satellite: VO-52 Catalog number: 28650 Epoch time: 07360.82000549 Element set: 0815 Inclination: 097.8125 deg RA of node: 067.0092 deg Eccentricity: 0.0026939 Arg of perigee: 348.6114 deg Mean anomaly: 011.4518 deg Mean motion: 14.81400595 rev/day Decay rate: 1.28e-06 rev/day^2 Epoch rev: 14293 Checksum: 295
Satellite: AO-40 Catalog number: 26609 Epoch time: 07359.43536579 Element set: 0982 Inclination: 007.1982 deg RA of node: 105.2455 deg Eccentricity: 0.7929918 Arg of perigee: 035.6672 deg Mean anomaly: 356.9093 deg Mean motion: 01.25583042 rev/day Decay rate: -2.69e-06 rev/day^2 Epoch rev: 03284 Checksum: 345
Satellite: SO-33 Catalog number: 25509 Epoch time: 07360.63011926 Element set: 0096 Inclination: 031.4318 deg RA of node: 217.6972 deg Eccentricity: 0.0354520 Arg of perigee: 309.5631 deg Mean anomaly: 047.4176 deg Mean motion: 14.28186532 rev/day Decay rate: -2.68e-06 rev/day^2 Epoch rev: 47878 Checksum: 316
Satellite: FO-29 Catalog number: 24278 Epoch time: 07360.85024287 Element set: 0679 Inclination: 098.5786 deg RA of node: 294.8536 deg Eccentricity: 0.0350143 Arg of perigee: 304.3726 deg Mean anomaly: 052.4744 deg Mean motion: 13.52934649 rev/day Decay rate: -7.1e-07 rev/day^2 Epoch rev: 56095 Checksum: 346
Satellite: RS-15 Catalog number: 23439 Epoch time: 07360.62131522 Element set: 0100 Inclination: 064.8186 deg RA of node: 055.7220 deg Eccentricity: 0.0152694 Arg of perigee: 155.7020 deg Mean anomaly: 205.1200 deg Mean motion: 11.27552298 rev/day Decay rate: -3.9e-07 rev/day^2 Epoch rev: 53539 Checksum: 268
Satellite: UO-11 Catalog number: 14781 Epoch time: 07360.72626987 Element set: 0555 Inclination: 098.1741 deg RA of node: 026.9778 deg Eccentricity: 0.0008051 Arg of perigee: 272.0625 deg Mean anomaly: 087.9657 deg Mean motion: 14.79606716 rev/day Decay rate: 3.43e-06 rev/day^2 Epoch rev: 27820 Checksum: 336
Satellite: AO-10 Catalog number: 14129 Epoch time: 07360.87514120 Element set: 0456 Inclination: 025.9518 deg RA of node: 238.8531 deg Eccentricity: 0.6043489 Arg of perigee: 084.8473 deg Mean anomaly: 337.1960 deg Mean motion: 02.05867970 rev/day Decay rate: 2.19e-06 rev/day^2 Epoch rev: 18453 Checksum: 321
Satellite: AO-07 Catalog number: 07530 Epoch time: 07360.55490817 Element set: 0062 Inclination: 101.4909 deg RA of node: 032.7167 deg Eccentricity: 0.0011867 Arg of perigee: 240.5711 deg Mean anomaly: 119.4179 deg Mean motion: 12.53573059 rev/day Decay rate: -2.8e-07 rev/day^2 Epoch rev: 51522 Checksum: 287
/EX SB KEPS @ AMSAT $ORB07361.D Orbital Elements 07361.MICROS
HR AMSAT ORBITAL ELEMENTS FOR THE MICROSATS FROM WA5QGD FORT WORTH,TX December 27, 2007 Send Subscribe/unsubscribe to KEPS at http://www.amsat.org/mailman/listinfo/keps BID: ORB07361.D TO ALL RADIO AMATEURS BT
Satellite: LIBERT Catalog number: 31129 Epoch time: 07360.65473683 Element set: 0618 Inclination: 098.0631 deg RA of node: 066.2682 deg Eccentricity: 0.0103170 Arg of perigee: 150.9855 deg Mean anomaly: 209.7109 deg Mean motion: 14.51988664 rev/day Decay rate: 3.39e-06 rev/day^2 Epoch rev: 03673 Checksum: 314
Satellite: CP3 Catalog number: 31128 Epoch time: 07360.67009361 Element set: 0216 Inclination: 098.0638 deg RA of node: 066.2595 deg Eccentricity: 0.0103414 Arg of perigee: 150.8983 deg Mean anomaly: 209.8058 deg Mean motion: 14.51897780 rev/day Decay rate: -4.7e-07 rev/day^2 Epoch rev: 03675 Checksum: 314
Satellite: CP4 Catalog number: 31122 Epoch time: 07360.66923241 Element set: 0222 Inclination: 098.0650 deg RA of node: 067.5248 deg Eccentricity: 0.0086480 Arg of perigee: 147.4892 deg Mean anomaly: 213.1663 deg Mean motion: 14.55067806 rev/day Decay rate: 5.51e-06 rev/day^2 Epoch rev: 03684 Checksum: 294
Satellite: NO-61 Catalog number: 29664 Epoch time: 07358.13371241 Element set: 734 Inclination: 051.6139 deg RA of node: 155.9602 deg Eccentricity: 0.0003450 Arg of perigee: 326.6914 deg Mean anomaly: 033.3673 deg Mean motion: 16.40530205 rev/day Decay rate: 3.126866e-02 rev/day^2 Epoch rev: 5860 Checksum: 297
Satellite: HO-59 Catalog number: 29484 Epoch time: 07358.06973430 Element set: 972 Inclination: 098.2591 deg RA of node: 078.7346 deg Eccentricity: 0.0149580 Arg of perigee: 297.0513 deg Mean anomaly: 061.5397 deg Mean motion: 15.67836187 rev/day Decay rate: 3.8204e-04 rev/day^2 Epoch rev: 7065 Checksum: 363
Satellite: CO-56 Catalog number: 28941 Epoch time: 07358.08077656 Element set: 736 Inclination: 098.1108 deg RA of node: 081.1721 deg Eccentricity: 0.0197287 Arg of perigee: 316.9208 deg Mean anomaly: 041.6714 deg Mean motion: 15.47579432 rev/day Decay rate: 1.5645e-04 rev/day^2 Epoch rev: 10272 Checksum: 334
Satellite: AO-51 Catalog number: 28375 Epoch time: 07360.61677485 Element set: 0993 Inclination: 098.0895 deg RA of node: 029.7863 deg Eccentricity: 0.0084162 Arg of perigee: 320.0774 deg Mean anomaly: 039.4251 deg Mean motion: 14.40591920 rev/day Decay rate: 1.8e-07 rev/day^2 Epoch rev: 18341 Checksum: 326
Satellite: CO-57 Catalog number: 27848 Epoch time: 07360.93261380 Element set: 0154 Inclination: 098.7169 deg RA of node: 005.7297 deg Eccentricity: 0.0009101 Arg of perigee: 261.4394 deg Mean anomaly: 098.5765 deg Mean motion: 14.20364822 rev/day Decay rate: 3.7e-07 rev/day^2 Epoch rev: 23281 Checksum: 318
Satellite: CO-55 Catalog number: 27844 Epoch time: 07360.67582832 Element set: 0198 Inclination: 098.7176 deg RA of node: 006.3424 deg Eccentricity: 0.0009054 Arg of perigee: 256.6587 deg Mean anomaly: 103.3574 deg Mean motion: 14.20551477 rev/day Decay rate: 7.2e-07 rev/day^2 Epoch rev: 23280 Checksum: 318
Satellite: SO-50 Catalog number: 27607 Epoch time: 07360.88961036 Element set: 0492 Inclination: 064.5570 deg RA of node: 219.9154 deg Eccentricity: 0.0075748 Arg of perigee: 314.3086 deg Mean anomaly: 045.1818 deg Mean motion: 14.71314620 rev/day Decay rate: 9.0e-08 rev/day^2 Epoch rev: 26947 Checksum: 318
Satellite: NO-44 Catalog number: 26931 Epoch time: 07360.49364681 Element set: 0767 Inclination: 067.0519 deg RA of node: 012.1071 deg Eccentricity: 0.0004911 Arg of perigee: 259.8130 deg Mean anomaly: 100.2427 deg Mean motion: 14.29506212 rev/day Decay rate: -5.9e-07 rev/day^2 Epoch rev: 32558 Checksum: 286
Satellite: MO-46 Catalog number: 26548 Epoch time: 07360.88864657 Element set: 0983 Inclination: 064.5585 deg RA of node: 306.4858 deg Eccentricity: 0.0008753 Arg of perigee: 346.8560 deg Mean anomaly: 013.2306 deg Mean motion: 14.83212519 rev/day Decay rate: -2.4e-07 rev/day^2 Epoch rev: 39211 Checksum: 330
Satellite: GO-32 Catalog number: 25397 Epoch time: 07358.06118767 Element set: 483 Inclination: 098.3901 deg RA of node: 036.7100 deg Eccentricity: 0.0001931 Arg of perigee: 059.5786 deg Mean anomaly: 300.5583 deg Mean motion: 14.23136412 rev/day Decay rate: 1.03e-06 rev/day^2 Epoch rev: 49116 Checksum: 292
Satellite: PO-28 Catalog number: 22829 Epoch time: 07360.87717398 Element set: 0836 Inclination: 098.3424 deg RA of node: 324.7566 deg Eccentricity: 0.0010235 Arg of perigee: 027.3161 deg Mean anomaly: 332.8556 deg Mean motion: 14.30175703 rev/day Decay rate: -5.4e-07 rev/day^2 Epoch rev: 74335 Checksum: 316
Satellite: IO-26 Catalog number: 22826 Epoch time: 07360.87567614 Element set: 0561 Inclination: 098.3526 deg RA of node: 323.6202 deg Eccentricity: 0.0009827 Arg of perigee: 052.3674 deg Mean anomaly: 307.8395 deg Mean motion: 14.29473697 rev/day Decay rate: -6.0e-08 rev/day^2 Epoch rev: 74310 Checksum: 325
Satellite: AO-27 Catalog number: 22825 Epoch time: 07360.93159015 Element set: 0861 Inclination: 098.3597 deg RA of node: 322.6840 deg Eccentricity: 0.0009256 Arg of perigee: 055.7141 deg Mean anomaly: 304.4947 deg Mean motion: 14.29226063 rev/day Decay rate: -5.4e-07 rev/day^2 Epoch rev: 74302 Checksum: 306
Satellite: LO-19 Catalog number: 20442 Epoch time: 07360.90671197 Element set: 0138 Inclination: 098.1876 deg RA of node: 354.0070 deg Eccentricity: 0.0011406 Arg of perigee: 335.7972 deg Mean anomaly: 024.2668 deg Mean motion: 14.32019205 rev/day Decay rate: 1.2e-07 rev/day^2 Epoch rev: 93627 Checksum: 292
Satellite: AO-16 Catalog number: 20439 Epoch time: 07360.90046522 Element set: 0213 Inclination: 098.2120 deg RA of node: 344.9974 deg Eccentricity: 0.0010761 Arg of perigee: 338.3759 deg Mean anomaly: 021.6961 deg Mean motion: 14.31780022 rev/day Decay rate: 2.1e-07 rev/day^2 Epoch rev: 93612 Checksum: 278
/EX SB KEPS @ AMSAT $ORB07361.W Orbital Elements 07361.WEATHER
HR AMSAT ORBITAL ELEMENTS FOR WEATHER SATELLITES FROM WA5QGD FORT WORTH,TX December 27, 2007 Send Subscribe/unsubscribe to KEPS at http://www.amsat.org/mailman/listinfo/keps BID: ORB07361.W TO ALL RADIO AMATEURS BT
Satellite: NOAA-18 Catalog number: 28654 Epoch time: 07360.55133084 Element set: 0246 Inclination: 098.8512 deg RA of node: 298.7853 deg Eccentricity: 0.0015255 Arg of perigee: 084.6848 deg Mean anomaly: 275.6061 deg Mean motion: 14.11121529 rev/day Decay rate: 2.7e-07 rev/day^2 Epoch rev: 13398 Checksum: 320
Satellite: NOAA-17 Catalog number: 27453 Epoch time: 07360.56390823 Element set: 0731 Inclination: 098.5600 deg RA of node: 065.0403 deg Eccentricity: 0.0010911 Arg of perigee: 252.0288 deg Mean anomaly: 107.9711 deg Mean motion: 14.23936977 rev/day Decay rate: 2.65e-06 rev/day^2 Epoch rev: 28609 Checksum: 302
